DW9206 Weather Reports


time (UTC)temp
C
wind
direction
speed
KPH
gust
KPH
rain 1hr
cm
rain 24hr
cm
rain mn
cm
humidity
%
barometer
mb
20260506192513 18 63 0.0 0.0 0.10 0.20 0.20 91 1003.1
20260506192043 18 78 0.0 0.0 0.10 0.20 0.20 91 1003.1
20260506191543 18 78 0.0 0.0 0.10 0.20 0.20 91 1003.1
20260506191012 18 79 0.0 0.0 0.10 0.20 0.20 91 1003.1
20260506190542 18 115 0.0 0.0 0.10 0.20 0.20 90 1003.1
20260506190043 18 156 0.0 0.0 0.20 0.20 0.20 90 1003.1
20260506185042 18 109 0.0 9.7 0.20 0.20 0.20 90 1003.1
20260506184512 18 76 9.7 9.7 0.20 0.20 0.20 89 1003.1
20260506184013 18 146 0.0 0.0 0.10 0.10 0.10 89 1003.1
20260506183513 17 148 0.0 0.0 0.10 0.10 0.10 89 1003.1
20260506182543 17 92 0.0 0.0 0.10 0.10 0.10 89 1003.1
20260506182041 18 61 0.0 8.0 0.10 0.10 0.10 88 1003.1
20260506181541 18 168 8.0 8.0 0.10 0.10 0.10 88 1003.1
20260506181042 18 119 0.0 0.0 0.10 0.10 0.10 88 1003.1
20260506180541 18 60 0.0 0.0 0.10 0.10 0.10 87 1003.1
20260506180040 18 157 0.0 0.0 0.00 0.00 0.00 87 1003.1
20260506175542 18 141 0.0 8.0 0.00 0.00 0.00 85 1004.1
20260506175040 18 166 8.0 8.0 0.00 0.00 0.00 85 1004.1
20260506174541 18 127 0.0 0.0 0.00 0.00 0.00 84 1004.1
20260506174042 18 123 0.0 0.0 0.00 0.00 0.00 83 1004.1
20260506173039 18 166 0.0 0.0 0.00 0.00 0.00 79 1004.1
20260506171539 19 189 0.0 9.7 0.00 0.00 0.00 76 1004.1
20260506171041 20 129 9.7 9.7 0.00 0.00 0.00 75 1004.1
20260506170538 20 315 0.0 0.0 0.00 0.00 0.00 73 1004.1
20260506170038 20 106 0.0 0.0 0.00 0.00 0.00 73 1004.1
20260506165540 20 55 0.0 0.0 0.00 0.00 0.00 72 1004.1
20260506165038 20 135 0.0 0.0 0.00 0.00 0.00 72 1004.1
20260506164535 20 169 0.0 8.0 0.00 0.00 0.00 72 1004.1
20260506164037 20 122 8.0 8.0 0.00 0.00 0.00 72 1004.1
20260506163534 20 17 8.0 8.0 0.00 0.00 0.00 72 1004.1
20260506163033 20 14 0.0 0.0 0.00 0.00 0.00 72 1004.1
20260506162537 20 30 0.0 0.0 0.00 0.00 0.00 72 1005.1
20260506162033 20 4 0.0 0.0 0.00 0.00 0.00 72 1005.1
20260506161533 20 346 0.0 0.0 0.00 0.00 0.00 72 1005.1
20260506161036 20 311 0.0 8.0 0.00 0.00 0.00 72 1005.1
20260506160534 21 110 8.0 8.0 0.00 0.00 0.00 72 1005.1
20260506160033 21 140 8.0 8.0 0.00 0.00 0.00 72 1005.1
20260506155535 21 211 0.0 9.7 0.00 0.00 0.00 72 1005.1
20260506154532 21 165 0.0 8.0 0.00 0.00 0.00 71 1005.1
20260506154035 21 159 8.0 8.0 0.00 0.00 0.00 71 1005.1
20260506153032 21 95 0.0 0.0 0.00 0.00 0.00 71 1005.1
20260506152534 21 105 0.0 0.0 0.00 0.00 0.00 71 1005.1
20260506151532 21 108 0.0 8.0 0.00 0.00 0.00 71 1005.1
20260506151033 21 151 8.0 8.0 0.00 0.00 0.00 71 1005.1
20260506150531 21 219 0.0 0.0 0.00 0.00 0.00 70 1005.1
20260506150031 21 219 0.0 8.0 0.00 0.00 0.00 70 1005.1
20260506145533 22 97 8.0 8.0 0.00 0.00 0.00 70 1005.1
20260506144531 22 53 0.0 0.0 0.00 0.00 0.00 69 1005.1
20260506144032 23 209 0.0 8.0 0.00 0.00 0.00 69 1005.1
20260506143530 23 67 8.0 8.0 0.00 0.00 0.00 69 1005.1
20260506142532 23 50 0.0 0.0 0.00 0.00 0.00 70 1005.1
20260506142030 23 162 0.0 8.0 0.00 0.00 0.00 70 1005.1
20260506141530 23 137 8.0 9.7 0.00 0.00 0.00 71 1005.1
20260506141031 22 59 9.7 9.7 0.00 0.00 0.00 71 1005.1
20260506140529 22 85 9.7 9.7 0.00 0.00 0.00 72 1005.1
20260506140030 22 316 8.0 19.3 0.00 0.00 0.00 72 1005.1
20260506135531 22 125 19.3 19.3 0.00 0.00 0.00 72 1005.1
20260506135028 22 160 8.0 8.0 0.00 0.00 0.00 73 1005.1
20260506134528 22 117 8.0 8.0 0.00 0.00 0.00 73 1005.1
20260506134031 22 241 0.0 0.0 0.00 0.00 0.00 73 1005.1
20260506133529 22 56 0.0 0.0 0.00 0.00 0.00 75 1005.1
20260506133028 22 159 0.0 0.0 0.00 0.00 0.00 75 1005.1
20260506132528 22 112 0.0 0.0 0.00 0.00 0.00 75 1005.1
20260506132028 22 87 0.0 0.0 0.00 0.00 0.00 75 1005.1
20260506131528 23 91 0.0 0.0 0.00 0.00 0.00 75 1005.1
20260506131027 23 142 0.0 0.0 0.00 0.00 0.00 75 1005.1
20260506130527 23 76 0.0 12.9 0.00 0.00 0.00 75 1005.1
20260506130028 23 114 12.9 12.9 0.00 0.00 0.00 76 1005.1
20260506125527 23 154 0.0 9.7 0.00 0.00 0.00 76 1005.1
20260506125027 23 98 9.7 9.7 0.00 0.00 0.00 76 1005.1
20260506124526 23 196 0.0 8.0 0.00 0.00 0.00 76 1005.1
20260506124026 23 70 8.0 8.0 0.00 0.00 0.00 76 1006.1
20260506123526 23 138 0.0 0.0 0.00 0.00 0.00 77 1006.1
20260506123027 22 2 0.0 0.0 0.00 0.00 0.00 78 1006.1
20260506122527 21 143 0.0 0.0 0.00 0.00 0.00 81 1006.1
20260506122026 20 93 0.0 8.0 0.00 0.00 0.00 81 1006.1
20260506121526 20 166 8.0 8.0 0.00 0.00 0.00 81 1006.1
20260506121025 20 180 0.0 11.3 0.00 0.00 0.00 81 1005.1
20260506120527 21 181 11.3 11.3 0.00 0.00 0.00 81 1005.1
20260506120025 21 185 0.0 0.0 0.00 0.00 0.00 81 1005.1
20260506115525 20 107 0.0 9.7 0.00 0.00 0.00 82 1005.1
20260506115026 20 120 9.7 9.7 0.00 0.00 0.00 83 1005.1
20260506114525 20 152 0.0 8.0 0.00 0.00 0.00 84 1005.1
20260506114025 19 129 8.0 8.0 0.00 0.00 0.00 84 1006.1
20260506113525 18 125 8.0 8.0 0.00 0.00 0.00 84 1006.1
20260506113025 18 108 0.0 0.0 0.00 0.00 0.00 85 1006.1
20260506112524 18 112 0.0 0.0 0.00 0.00 0.00 85 1005.1
20260506112024 18 357 0.0 0.0 0.00 0.00 0.00 85 1005.1
20260506111524 18 55 0.0 0.0 0.00 0.00 0.00 87 1005.1
20260506111024 18 55 0.0 0.0 0.00 0.00 0.00 87 1005.1
20260506110023 17 56 0.0 0.0 0.00 0.00 0.00 88 1005.1
20260506105524 16 353 0.0 0.0 0.00 0.00 0.00 89 1006.1
20260506105023 16 353 0.0 0.0 0.00 0.00 0.00 89 1006.1
20260506104524 16 77 0.0 0.0 0.00 0.00 0.00 89 1006.1
20260506104023 15 77 0.0 0.0 0.00 0.00 0.00 89 1005.1
20260506103524 15 77 0.0 0.0 0.00 0.00 0.00 89 1005.1
20260506103023 15 77 0.0 0.0 0.00 0.00 0.00 89 1005.1
20260506102522 15 77 0.0 0.0 0.00 0.00 0.00 88 1005.1
20260506101522 15 77 0.0 0.0 0.00 0.00 0.00 88 1005.1
20260506101022 15 77 0.0 0.0 0.00 0.00 0.00 88 1005.1
20260506100523 15 80 0.0 0.0 0.00 0.00 0.00 88 1005.1
20260506100021 15 80 0.0 0.0 0.00 0.00 0.00 87 1005.1
20260506095521 15 80 0.0 0.0 0.00 0.00 0.00 87 1005.1
20260506095021 15 80 0.0 0.0 0.00 0.00 0.00 87 1005.1
20260506094521 15 80 0.0 0.0 0.00 0.00 0.00 87 1005.1
20260506094021 15 80 0.0 0.0 0.00 0.00 0.00 85 1005.1
20260506093521 15 80 0.0 0.0 0.00 0.00 0.00 85 1005.1
20260506093022 15 80 0.0 0.0 0.00 0.00 0.00 85 1005.1
20260506092521 15 80 0.0 0.0 0.00 0.00 0.00 85 1005.1
20260506092020 15 80 0.0 0.0 0.00 0.00 0.00 85 1005.1
20260506091521 15 80 0.0 0.0 0.00 0.00 0.00 84 1005.1
20260506091020 15 80 0.0 0.0 0.00 0.00 0.00 84 1006.1
20260506090520 15 80 0.0 0.0 0.00 0.00 0.00 84 1006.1
20260506090020 15 80 0.0 0.0 0.00 0.00 0.00 84 1006.1
20260506085521 15 80 0.0 0.0 0.00 0.00 0.00 84 1006.1
20260506085019 15 80 0.0 0.0 0.00 0.00 0.00 84 1006.1
20260506084519 15 80 0.0 0.0 0.00 0.00 0.00 83 1006.1
20260506084019 15 84 0.0 0.0 0.00 0.00 0.00 83 1006.1
20260506083519 15 91 0.0 0.0 0.00 0.00 0.00 83 1006.1
20260506082520 15 91 0.0 0.0 0.00 0.00 0.00 83 1006.1
20260506082018 15 92 0.0 0.0 0.00 0.00 0.00 83 1006.1
20260506081518 15 113 0.0 0.0 0.00 0.00 0.00 83 1006.1
20260506081020 15 113 0.0 0.0 0.00 0.00 0.00 82 1006.1
20260506080519 15 95 0.0 0.0 0.00 0.00 0.00 82 1006.1
20260506073047 15 44 0.0 0.0 0.00 0.00 0.00 82 1006.1
20260506072519 15 197 0.0 0.0 0.00 0.00 0.00 81 1006.1
20260506072017 15 357 0.0 11.3 0.00 0.00 0.00 81 1006.1
20260506071547 15 92 11.3 11.3 0.00 0.00 0.00 81 1006.1
20260506071018 14 260 0.0 0.0 0.00 0.00 0.00 81 1006.1
20260506070546 14 31 0.0 0.0 0.00 0.00 0.00 81 1006.1
20260506062015 14 37 0.0 0.0 0.00 0.00 0.00 78 1006.1
20260506061514 14 37 0.0 0.0 0.00 0.00 0.00 78 1006.1
20260506061016 14 37 0.0 0.0 0.00 0.00 0.00 78 1006.1
20260506060515 14 37 0.0 0.0 0.00 0.00 0.00 78 1006.1
20260506050542 15 139 0.0 0.0 0.00 0.00 0.00 75 1006.1
20260506045043 15 1 0.0 0.0 0.00 0.00 0.00 75 1006.1
20260506044543 15 109 0.0 0.0 0.00 0.00 0.00 73 1006.1
20260506044042 15 109 0.0 0.0 0.00 0.00 0.00 73 1006.1
20260506043511 15 93 0.0 0.0 0.00 0.00 0.00 73 1006.1
20260506043042 15 94 0.0 9.7 0.00 0.00 0.00 73 1006.1
20260506042513 15 113 9.7 9.7 0.00 0.00 0.00 73 1006.1
20260506042011 15 235 0.0 0.0 0.00 0.00 0.00 73 1006.1
20260506041541 15 235 0.0 8.0 0.00 0.00 0.00 73 1006.1
20260506041011 15 126 8.0 8.0 0.00 0.00 0.00 73 1006.1
20260506040541 15 106 0.0 0.0 0.00 0.00 0.00 73 1006.1
20260506034541 15 85 0.0 0.0 0.00 0.00 0.00 72 1006.1
20260506034040 15 174 0.0 0.0 0.00 0.00 0.00 71 1006.1
20260506033539 15 91 0.0 0.0 0.00 0.00 0.00 71 1006.1
20260506033039 15 81 0.0 0.0 0.00 0.00 0.00 71 1006.1
20260506032540 15 48 0.0 0.0 0.00 0.00 0.00 71 1006.1
20260506032041 15 273 0.0 8.0 0.00 0.00 0.00 70 1006.1
20260506031539 15 21 8.0 8.0 0.00 0.00 0.00 70 1006.1
20260506031038 15 77 0.0 0.0 0.00 0.00 0.00 70 1006.1
20260506025539 16 18 0.0 8.0 0.00 0.00 0.00 69 1006.1
20260506025039 16 341 8.0 8.0 0.00 0.00 0.00 69 1006.1
20260506024538 16 60 0.0 0.0 0.00 0.00 0.00 67 1006.1
20260506023538 16 248 0.0 0.0 0.00 0.00 0.00 67 1006.1
20260506023037 16 51 0.0 8.0 0.00 0.00 0.00 67 1006.1
20260506022537 16 83 8.0 8.0 0.00 0.00 0.00 67 1006.1
20260506022037 16 270 8.0 8.0 0.00 0.00 0.00 66 1006.1
20260506021538 16 42 0.0 0.0 0.00 0.00 0.00 66 1006.1
20260506021037 16 83 0.0 8.0 0.00 0.00 0.00 66 1006.1
20260506020537 16 81 8.0 8.0 0.00 0.00 0.00 66 1006.1
20260506020037 16 92 0.0 0.0 0.00 0.00 0.00 66 1006.1
20260506015536 16 119 0.0 0.0 0.00 0.00 0.00 66 1006.1
20260506015036 16 145 0.0 0.0 0.00 0.00 0.00 65 1006.1
20260506014537 16 87 0.0 12.9 0.00 0.00 0.00 65 1006.1
20260506014036 16 333 12.9 12.9 0.00 0.00 0.00 65 1006.1
20260506013535 16 321 0.0 0.0 0.00 0.00 0.00 65 1006.1
20260506013036 16 0 0.0 16.1 0.00 0.00 0.00 65 1006.1
20260506012036 16 25 9.7 9.7 0.00 0.00 0.00 64 1005.1
20260506011035 16 60 9.7 9.7 0.00 0.00 0.00 64 1005.1
20260506010535 16 59 0.0 17.7 0.00 0.00 0.00 64 1005.1
20260506010036 16 36 17.7 17.7 0.00 0.00 0.00 64 1005.1
20260506005535 16 54 12.9 12.9 0.00 0.00 0.00 63 1005.1
20260506005036 16 51 9.7 17.7 0.00 0.00 0.00 63 1005.1
20260506004534 16 109 17.7 17.7 0.00 0.00 0.00 63 1005.1
20260506003534 16 49 0.0 0.0 0.00 0.00 0.00 63 1005.1
20260506003034 16 252 0.0 0.0 0.00 0.00 0.00 61 1005.1
20260506002034 17 108 8.0 8.0 0.00 0.00 0.00 61 1004.1
20260506001534 17 16 0.0 0.0 0.00 0.00 0.00 61 1004.1
20260506001034 17 54 0.0 0.0 0.00 0.00 0.00 60 1004.1
20260506000533 17 206 0.0 0.0 0.00 0.00 0.00 60 1004.1
20260506000034 17 253 0.0 0.0 0.00 0.00 0.00 60 1004.1
20260505235533 17 45 0.0 8.0 0.00 0.00 0.00 60 1004.1
20260505235033 17 25 8.0 16.1 0.00 0.00 0.00 60 1004.1
20260505234532 17 32 16.1 16.1 0.00 0.00 0.00 60 1004.1
20260505234033 17 99 0.0 0.0 0.00 0.00 0.00 60 1004.1
20260505233532 17 342 0.0 8.0 0.00 0.00 0.00 60 1004.1
20260505233033 17 302 8.0 8.0 0.00 0.00 0.00 59 1004.1
20260505232531 18 104 0.0 0.0 0.00 0.00 0.00 59 1004.1
20260505232031 18 53 0.0 0.0 0.00 0.00 0.00 59 1004.1
20260505231531 18 160 0.0 0.0 0.00 0.00 0.00 59 1004.1
20260505231031 18 280 0.0 0.0 0.00 0.00 0.00 59 1004.1
20260505230531 18 178 0.0 0.0 0.00 0.00 0.00 59 1004.1
20260505230032 18 173 0.0 0.0 0.00 0.00 0.00 58 1004.1
20260505225032 19 146 0.0 0.0 0.00 0.00 0.00 58 1004.1
20260505224030 19 106 0.0 0.0 0.00 0.00 0.00 58 1004.1
20260505223531 20 164 0.0 0.0 0.00 0.00 0.00 58 1004.1
20260505223030 20 167 0.0 0.0 0.00 0.00 0.00 58 1004.1
20260505222532 20 129 0.0 0.0 0.00 0.00 0.00 58 1004.1
20260505222030 20 118 0.0 8.0 0.00 0.00 0.00 58 1004.1
20260505221530 20 267 8.0 8.0 0.00 0.00 0.00 58 1004.1
20260505220529 20 179 0.0 12.9 0.00 0.00 0.00 57 1004.1
20260505220029 20 106 12.9 12.9 0.00 0.00 0.00 57 1004.1
20260505215029 20 61 8.0 8.0 0.00 0.00 0.00 57 1004.1
20260505214529 20 133 0.0 8.0 0.00 0.00 0.00 58 1004.1
20260505213529 20 143 0.0 0.0 0.00 0.00 0.00 58 1004.1
20260505213028 20 182 0.0 8.0 0.00 0.00 0.00 58 1004.1
20260505212530 20 130 8.0 8.0 0.00 0.00 0.00 58 1004.1
20260505212028 20 152 0.0 0.0 0.00 0.00 0.00 57 1004.1
20260505211527 20 168 0.0 8.0 0.00 0.00 0.00 57 1004.1
20260505211027 20 162 8.0 12.9 0.00 0.00 0.00 57 1003.1
20260505210527 20 116 12.9 12.9 0.00 0.00 0.00 57 1003.1
20260505210028 20 157 8.0 8.0 0.00 0.00 0.00 57 1003.1
20260505205529 21 302 0.0 0.0 0.00 0.00 0.00 57 1003.1
20260505205027 21 142 0.0 8.0 0.00 0.00 0.00 57 1003.1
20260505204527 21 92 8.0 9.7 0.00 0.00 0.00 57 1003.1
20260505204026 21 183 9.7 9.7 0.00 0.00 0.00 57 1004.1
20260505203527 21 144 0.0 0.0 0.00 0.00 0.00 57 1004.1
20260505203026 21 186 0.0 0.0 0.00 0.00 0.00 57 1004.1
20260505202526 21 197 0.0 8.0 0.00 0.00 0.00 57 1004.1
20260505202026 21 166 8.0 8.0 0.00 0.00 0.00 57 1004.1
20260505201526 21 72 8.0 8.0 0.00 0.00 0.00 57 1004.1
20260505201026 21 17 8.0 8.0 0.00 0.00 0.00 57 1004.1
20260505200525 21 220 0.0 0.0 0.00 0.00 0.00 57 1004.1
20260505200026 21 167 0.0 9.7 0.00 0.00 0.00 57 1004.1
20260505195025 21 170 8.0 8.0 0.00 0.00 0.00 55 1004.1
20260505194525 22 128 8.0 8.0 0.00 0.00 0.00 55 1004.1
20260505193524 22 160 8.0 8.0 0.00 0.00 0.00 55 1004.1
20260505193024 22 103 8.0 12.9 0.00 0.00 0.00 55 1004.1